This is the latest recevied weather packets stored in our database for station/object KC3WWU. If no packets are shown the sender has not sent any weather packets the latest 10 day(s).
| Time | Temp. | Humidity | Pressure | Rain* | Wind** | Luminosity | Snow |
|---|---|---|---|---|---|---|---|
| 1777577482 | 5.56° C | 98% | 1009.4 hPa | 0 mm | - | 25 W/m² | - |
| 1777577179 | 5.56° C | 97% | 1009.5 hPa | 0 mm | - | 29 W/m² | - |
| 1777576875 | 5.56° C | 97% | 1009.3 hPa | 0 mm | - | 32 W/m² | - |
| 1777576574 | 5.56° C | 98% | 1009.4 hPa | 0 mm | - | 37 W/m² | - |
| 1777576271 | 5.56° C | 98% | 1009.3 hPa | 0 mm | - | 45 W/m² | - |
| 1777575967 | 6.11° C | 98% | 1009.2 hPa | 0 mm | - | 103 W/m² | - |
| 1777575663 | 5.56° C | 98% | 1009.4 hPa | 0 mm | - | 135 W/m² | - |
| 1777575359 | 5.56° C | 99% | 1009.2 hPa | 0 mm | - | 213 W/m² | - |
| 1777575056 | 5.56° C | 99% | 1009 hPa | 0 mm | - | 95 W/m² | - |
| 1777574751 | 5° C | 99% | 1009.2 hPa | 0 mm | - | 121 W/m² | - |
| 1777574449 | 5.56° C | 99% | 1009.2 hPa | 0 mm | - | 80 W/m² | - |
| 1777574144 | 5.56° C | 99% | 1009.1 hPa | 0 mm | - | 74 W/m² | - |
| 1777573840 | 5.56° C | 99% | 1009.2 hPa | 0 mm | - | 86 W/m² | - |
| 1777573535 | 5.56° C | 99% | 1009.2 hPa | 0 mm | - | 76 W/m² | - |
| 1777573232 | 5.56° C | 99% | 1009.1 hPa | 0 mm | - | 63 W/m² | - |
| 1777572928 | 5.56° C | 99% | 1008.9 hPa | 0 mm | - | 53 W/m² | - |
| 1777572624 | 5.56° C | 98% | 1008.9 hPa | 0 mm | - | 45 W/m² | - |
| 1777572324 | 5.56° C | 99% | 1008.7 hPa | 0 mm | - | 54 W/m² | - |
| 1777572021 | 5.56° C | 99% | 1008.7 hPa | 0 mm | - | 65 W/m² | - |
| 1777571720 | 5.56° C | 99% | 1008.5 hPa | 0 mm | - | 55 W/m² | - |
| 1777571419 | 6.11° C | 99% | 1008.5 hPa | 0 mm | - | 51 W/m² | - |
| 1777571114 | 6.11° C | 99% | 1008.5 hPa | 0 mm | - | 54 W/m² | - |
| 1777570810 | 6.67° C | 99% | 1008.5 hPa | 0 mm | - | 50 W/m² | - |
| 1777570506 | 7.22° C | 99% | 1008.4 hPa | 0 mm | - | 158 W/m² | - |
| 1777570203 | 6.67° C | 99% | 1008.6 hPa | 0 mm | - | 525 W/m² | - |
* Rain latest hour (hover to see other rain measurements)
** Current wind speed in m/s (hover to see current wind gust speed)